Regional Weather Roundup
Issued by NWS Jackson, KY

Home | Current Version | Previous Version | Text Only | Print | Product List | Glossary On
Versions: 1 2 3 4 5 6 7 8 9 10 11 12 13 14 15 16 17 18 19 20 21 22 23 24 25 26 27 28 29 30 31 32 33 34 35 36 37 38 39 40 41 42 43 44 45 46 47 48 49 50
000
ASUS43 KJKL 021310
RWRJKL

EAST KENTUCKY HOURLY WEATHER ROUNDUP
NATIONAL WEATHER SERVICE JACKSON KY
800 AM EST MON MAR 02 2015

NOTE: "FAIR" INDICATES FEW OR NO CLOUDS BELOW 12,000 FEET WITH
NO SIGNIFICANT WEATHER AND/OR OBSTRUCTIONS TO VISIBILITY.

* THESE REPORTS ARE NOT UNDER NWS QUALITY CONTROL AND MAY NOT
  REPORT WEATHER SUCH AS PRECIPITATION AND FOG.

KYZ079-080-083-085-087-088-110-112-115-119-120-021400
...EASTERN KENTUCKY...

CITY           SKY/WX    TMP DP  RH WIND       PRES   REMARKS
JACKSON        CLOUDY    31  27  85 VRB5      30.44R WCI  26
LONDON         CLOUDY    32  29  88 N9        30.44R FOG     WCI  24
SOMERSET*      CLOUDY    32  30  93 NE8       30.48R WCI  25
MONTICELLO*    CLOUDY    33  32  96 N9        30.49R FOG     WCI  25
MIDDLESBORO*   CLOUDY    35  32  90 N7        30.43R WCI  29
HAZARD APT*    CLOUDY    32  32 100 N3        30.45R FOG
BLACK MTN*       N/A     28  28 100 NW7         N/A  WCI  21
PIKEVILLE APT* CLOUDY    30  30 100 N7        30.42  FOG     WCI  23
BIG SANDY*     CLOUDY    32  30  93 N3        30.44R
MOREHEAD APT*  CLOUDY    25  19  80 NW7G14    30.51R WCI  17
$$

KYZ035-036-041-042-044-050-067-078-099-021400
...CENTRAL KENTUCKY...

CITY           SKY/WX    TMP DP  RH WIND       PRES   REMARKS
MT STERLING*   CLOUDY    27  21  80 N6        30.50R WCI  20
FLEMING/MASON* CLEAR     23  18  80 N6        30.50R WCI  16
DANVILLE*      CLOUDY    30  27  86 N9        30.49R WCI  22
RICHMOND*      CLOUDY    28  25  86 N9        30.48R WCI  20
LEXINGTON      CLEAR     25  19  78 N8        30.49R WCI  16
FRANKFORT      CLEAR     26  20  77 CALM      30.49R
$$

KYZ091>093-OHZ055-061-077-WVZ005-015-034-035-042-021400
...SOUTHERN OHIO/WEST VIRGINIA...

CITY           SKY/WX    TMP DP  RH WIND       PRES   REMARKS
COVINGTON      CLOUDY    21  15  78 NW5       30.49R WCI  15
COLUMBUS       CLOUDY    19  13  77 W5        30.45R WCI  12
DAYTON         CLOUDY    16  11  80 CALM      30.46R HAZE
WILMINGTON     MOCLDY    20  13  74 CALM      30.46R
HUNTINGTON     PTSUNNY   29  23  78 NW8       30.47R WCI  21
CHARLESTON     PTSUNNY   32  27  81 W6        30.43R WCI  26
PINEVILLE*     CLOUDY    36  36 100 MISG      30.42R
BECKLEY        LGT SNOW  30  28  92 NW17G26   30.32R FOG     WCI  18
BLUEFIELD      LGT SNOW  34  31  88 W10G22    30.29R FOG     WCI  26
$$

VAZ002-007-008-TNZ017-027-036-066-071-021400
...SOUTHWEST VIRGINIA/EAST TENNESSEE...

CITY           SKY/WX    TMP DP  RH WIND       PRES   REMARKS
WISE*          CLOUDY    32  32 100 NW8       30.35R FOG     WCI  25
JONESVILLE*    CLOUDY    37  37 100 NW5       30.40R WCI  34
ABINGDON*      CLOUDY    39  39 100 N6        30.34R
BRISTOL        CLOUDY    42  41  96 W5        30.36R FOG
KNOXVILLE      CLOUDY    42  39  89 N14       30.39R
OAK RIDGE      CLOUDY    41  37  86 VRB3      30.41R
CROSSVILLE     CLOUDY    33  31  92 N10       30.39R FOG     WCI  25
NASHVILLE      CLOUDY    32  30  92 N9        30.46F FOG     WCI  24
$$

...KEY TO REMARKS...
VSB - VISIBILITY IN MILES
WCI - WIND CHILL INDEX
HX  - HEAT INDEX

$$


USA.gov is the U.S. government's official web portal to all federal, state and local government web resources and services.